Weather History for KGDB - November, 2011

Change the Weather History Date:

Thursday, November 3, 2011

  Actual Average (KMVE) Record (KMVE)
Temperature  
Mean Temperature 34 °F -  
Max Temperature 52 °F 46 °F 75 °F (2008)
Min Temperature 15 °F 28 °F 5 °F (1951)
Degree Days  
Heating Degree Days 32    
Moisture  
Dew Point 17 °F    
Average Humidity 58    
Maximum Humidity 86    
Minimum Humidity 21    
Precipitation  
Precipitation 0.00 in - - ()
Sea Level Pressure  
Sea Level Pressure 30.28 in    
Wind  
Wind Speed 5 mph (SSW)    
Max Wind Speed 9 mph    
Max Gust Speed -    
Visibility 8 miles    
Events      
Averages and records for this station are not official NWS values.
T = Trace of Precipitation, MM = Missing Value Source: NWS Daily Summary

Daily Weather History Graph

Daily Weather History Graph

Search for Another Location

Airport or City:

Trip Planner

Search our weather history database for the weather conditions in past years. The results will help you decide how hot, cold, wet, or windy it might be!

Date:

Astronomy

Nov. 03, 2011 Rise Set
Actual Time 8:02 AM CDT 6:08 PM CDT
Civil Twilight 7:31 AM CDT 6:38 PM CDT
Nautical Twilight 6:57 AM CDT 7:13 PM CDT
Astronomical Twilight 6:23 AM CDT 7:47 PM CDT
Moon 2:47 PM CDT (11/3) 12:59 AM CDT (11/3)
Length of Visible Light 11h 07m
Length of Day
10h 05m
First Quarter, 60% of the Moon is Illuminated
Nov 3
First Quarter
Nov 10
Full
Nov 18
Last Quarter
Nov 25
New
Dec 2
First Quarter

Hourly Weather History & Observations

Time (CDT) Temp. Windchill Dew Point Humidity Pressure Visibility Wind Dir Wind Speed Gust Speed Precip Events Conditions
12:13 AM 24.3 °F 15.4 °F 19.4 °F 82% 30.30 in 10.0 mi West 8.1 mph - N/A   Clear
12:53 AM 22.8 °F 16.7 °F 18.3 °F 83% 30.30 in 10.0 mi West 4.6 mph - N/A   Clear
1:13 AM 22.3 °F 17.6 °F 18.0 °F 83% 30.30 in 7.0 mi SW 3.5 mph - N/A   Clear
1:32 AM 21.2 °F 16.4 °F 17.2 °F 85% 30.31 in 10.0 mi SSW 3.5 mph - N/A   Clear
1:52 AM 21.9 °F 14.5 °F 17.8 °F 84% 30.31 in 7.0 mi SSW 5.8 mph - N/A   Clear
2:12 AM 18.9 °F 9.8 °F 14.9 °F 85% 30.31 in 7.0 mi SW 6.9 mph - N/A   Clear
2:33 AM 18.7 °F 9.5 °F 14.7 °F 85% 30.32 in 10.0 mi West 6.9 mph - N/A   Clear
2:53 AM 19.2 °F 8.4 °F 14.7 °F 83% 30.31 in 10.0 mi West 9.2 mph - N/A   Clear
3:13 AM 21.0 °F 11.4 °F 15.8 °F 80% 30.32 in 10.0 mi West 8.1 mph - N/A   Clear
3:32 AM 20.7 °F 11.9 °F 15.6 °F 81% 30.31 in 7.0 mi West 6.9 mph - N/A   Clear
3:53 AM 21.0 °F 12.4 °F 15.8 °F 80% 30.31 in 7.0 mi West 6.9 mph - N/A   Clear
4:13 AM 21.0 °F 12.4 °F 15.8 °F 80% 30.30 in 10.0 mi West 6.9 mph - N/A   Clear
4:32 AM 21.0 °F 13.4 °F 15.4 °F 79% 30.30 in 10.0 mi West 5.8 mph - N/A   Clear
4:52 AM 20.8 °F 13.2 °F 15.3 °F 79% 30.29 in 10.0 mi West 5.8 mph - N/A   Clear
5:13 AM 20.3 °F 12.5 °F 14.9 °F 80% 30.29 in 10.0 mi West 5.8 mph - N/A   Clear
5:32 AM 19.9 °F 12.1 °F 14.5 °F 80% 30.30 in 10.0 mi West 5.8 mph - N/A   Clear
5:52 AM 20.1 °F 13.6 °F 14.9 °F 80% 30.30 in 10.0 mi West 4.6 mph - N/A   Clear
6:12 AM 20.5 °F 15.6 °F 15.1 °F 80% 30.30 in 10.0 mi West 3.5 mph - N/A   Clear
6:33 AM 20.5 °F 15.6 °F 14.9 °F 79% 30.31 in 7.0 mi SW 3.5 mph - N/A   Clear
6:53 AM 18.3 °F - 13.5 °F 81% 30.31 in 10.0 mi Calm Calm - N/A   Clear
7:13 AM 17.2 °F 11.9 °F 12.9 °F 83% 30.31 in 10.0 mi South 3.5 mph - N/A   Clear
7:32 AM 16.7 °F 11.2 °F 12.7 °F 84% 30.32 in 10.0 mi South 3.5 mph - N/A   Clear
7:53 AM 16.2 °F 9.0 °F 12.2 °F 84% 30.32 in 7.0 mi South 4.6 mph - N/A   Clear
8:12 AM 15.1 °F 9.4 °F 11.1 °F 84% 30.33 in 4.0 mi SSW 3.5 mph - N/A   Clear
8:33 AM 15.6 °F 8.3 °F 12.0 °F 86% 30.34 in 5.0 mi WSW 4.6 mph - N/A   Clear
8:53 AM 19.0 °F 12.3 °F 14.9 °F 84% 30.34 in 10.0 mi WSW 4.6 mph - N/A   Clear
9:13 AM 22.8 °F 18.2 °F 17.6 °F 80% 30.35 in 10.0 mi SSW 3.5 mph - N/A   Clear
9:33 AM 26.4 °F - 20.1 °F 77% 30.35 in 7.0 mi Calm Calm - N/A   Clear
9:53 AM 30.6 °F - 21.4 °F 69% 30.35 in 7.0 mi Calm Calm - N/A   Clear
10:13 AM 33.1 °F 30.0 °F 23.2 °F 67% 30.35 in 7.0 mi SSE 3.5 mph - N/A   Clear
10:33 AM 35.4 °F - 23.4 °F 62% 30.33 in 10.0 mi Calm Calm - N/A   Clear
10:52 AM 37.4 °F - 23.2 °F 57% 30.33 in 7.0 mi Calm Calm - N/A   Clear
11:12 AM 40.1 °F - 23.5 °F 52% 30.32 in 7.0 mi Calm Calm - N/A   Clear
11:33 AM 42.6 °F 40.9 °F 22.1 °F 44% 30.31 in 7.0 mi SSW 3.5 mph - N/A   Clear
11:53 AM 44.6 °F 42.2 °F 21.4 °F 40% 30.31 in 7.0 mi SSW 4.6 mph - N/A   Clear
12:13 PM 46.8 °F - 21.0 °F 36% 30.30 in 7.0 mi South 3.5 mph - N/A   Clear
12:33 PM 47.3 °F - 19.9 °F 34% 30.29 in 10.0 mi SE 3.5 mph - N/A   Clear
12:52 PM 48.6 °F - 19.4 °F 32% 30.28 in 10.0 mi SE 4.6 mph - N/A   Clear
1:13 PM 49.1 °F - 18.3 °F 30% 30.27 in 7.0 mi SSW 5.8 mph - N/A   Clear
1:33 PM 49.3 °F - 18.1 °F 29% 30.26 in 10.0 mi SW 6.9 mph - N/A   Clear
1:52 PM 49.8 °F - 17.2 °F 27% 30.26 in 7.0 mi South 4.6 mph - N/A   Clear
2:13 PM 50.5 °F - 17.4 °F 27% 30.25 in 7.0 mi ESE 3.5 mph - N/A   Clear
2:33 PM 51.6 °F - 14.4 °F 23% 30.25 in 7.0 mi SSW 5.8 mph - N/A   Clear
2:53 PM 52.3 °F - 15.8 °F 24% 30.24 in 7.0 mi SW 3.5 mph - N/A   Clear
3:13 PM 52.5 °F - 16.9 °F 25% 30.24 in 10.0 mi SSW 3.5 mph - N/A   Clear
3:33 PM 52.7 °F - 15.1 °F 23% 30.23 in 5.0 mi South 3.5 mph - N/A   Haze
3:52 PM 52.9 °F - 14.7 °F 22% 30.23 in 10.0 mi SW 6.9 mph - N/A   Clear
4:13 PM 52.9 °F - 13.8 °F 21% 30.22 in 7.0 mi South 3.5 mph - N/A   Clear
4:53 PM 52.7 °F - 16.0 °F 23% 30.22 in 10.0 mi South 8.1 mph - N/A   Clear
5:13 PM 52.3 °F - 17.1 °F 25% 30.22 in 7.0 mi SSE 6.9 mph - N/A   Clear
5:32 PM 50.5 °F - 17.8 °F 27% 30.22 in 5.0 mi SE 6.9 mph - N/A   Haze
6:33 PM 45.1 °F 40.8 °F 16.2 °F 31% 30.23 in 7.0 mi SE 8.1 mph - N/A   Clear
7:13 PM 41.7 °F 36.7 °F 16.0 °F 35% 30.23 in 7.0 mi SE 8.1 mph - N/A   Clear
7:33 PM 37.0 °F 31.0 °F 17.2 °F 45% 30.23 in 7.0 mi SSE 8.1 mph - N/A   Clear
7:52 PM 36.5 °F 31.0 °F 15.4 °F 42% 30.23 in 10.0 mi SSE 6.9 mph - N/A   Clear
8:13 PM 36.5 °F 30.3 °F 15.1 °F 42% 30.23 in 10.0 mi SSE 8.1 mph - N/A   Clear
8:32 PM 35.2 °F 28.8 °F 15.1 °F 44% 30.22 in 10.0 mi SSE 8.1 mph - N/A   Clear
8:53 PM 32.0 °F 24.8 °F 15.1 °F 50% 30.22 in 10.0 mi South 8.1 mph - N/A   Clear
9:13 PM 32.0 °F 24.2 °F 15.4 °F 51% 30.22 in 7.0 mi South 9.2 mph - N/A   Clear
9:32 PM 31.1 °F 23.7 °F 16.5 °F 55% 30.22 in 7.0 mi South 8.1 mph - N/A   Clear
10:13 PM 30.2 °F 21.9 °F 16.0 °F 56% 30.22 in 7.0 mi SSE 9.2 mph - N/A   Clear
10:33 PM 28.2 °F 20.2 °F 15.8 °F 60% 30.23 in 7.0 mi SSE 8.1 mph - N/A   Clear
10:52 PM 28.4 °F 19.7 °F 15.6 °F 59% 30.23 in 7.0 mi SSE 9.2 mph - N/A   Clear
11:32 PM 29.1 °F 22.1 °F 16.7 °F 60% 30.22 in 10.0 mi SSE 6.9 mph - N/A   Clear
11:52 PM 27.5 °F 20.2 °F 16.3 °F 63% 30.22 in 5.0 mi South 6.9 mph - N/A   Haze